SCP
0 0 0 0 0 0 0 0 0 0 1 2 2 3 3 3 4 5 5 5 5 5 5 5 5 7 8 7 4 3 3 2 2 2 2 1 1 1 1 1 1 1 1 1
0 0 0 0 0 0 0 0 0 0 1 2 2 3 3 2 3 4 5 4 4 5 5 4 4 5 6 5 4 4 4 3 3 2 2 1 1 1 1 1 1 1 1 1
0 0 0 0 0 0 0 0 0 1 1 2 2 3 2 2 2 3 3 4 4 5 4 3 3 3 4 4 5 5 5 5 4 3 2 2 2 2 2 2 2 1 1 1
0 0 0 0 0 0 0 0 0 1 1 2 2 2 2 2 2 2 3 3 4 4 3 2 2 3 4 4 5 6 7 6 5 4 3 3 2 2 2 2 2 2 2 2
0 0 0 0 0 0 0 0 0 0 0 1 1 1 1 2 2 3 3 4 4 3 3 2 3 4 4 4 5 7 7 7 6 5 4 3 3 2 2 2 2 2 2 1
0 0 0 0 0 0 0 0 0 0 0 0 0 0 1 1 2 3 4 4 3 3 3 3 3 4 4 5 6 7 7 7 6 5 4 3 3 2 2 2 2 2 2 1
0 0 0 0 0 0 0 0 0 0 0 0 0 0 1 1 2 3 4 4 3 3 3 3 4 4 4 5 7 8 8 7 6 4 3 3 2 2 1 1 2 2 2 2
0 0 0 0 0 0 0 0 0 0 0 0 0 0 1 1 2 3 3 3 3 3 3 3 4 4 4 5 7 8 8 7 5 4 3 2 1 1 1 1 1 2 2 2
0 0 0 0 0 0 0 0 0 0 0 0 0 1 1 1 2 3 3 3 3 2 3 3 4 4 4 5 6 8 8 7 5 3 2 1 1 0 0 0 1 1 1 1
0 0 0 0 0 0 0 0 0 0 0 0 0 0 0 1 1 2 3 2 2 2 3 3 3 4 4 4 6 7 7 5 3 2 1 0 0 0 0 0 0 1 1 0
0 0 0 0 0 0 0 0 0 0 0 0 0 0 0 1 1 2 2 2 2 2 2 2 3 3 4 4 5 6 5 4 2 1 0 0 0 0 0 0 0 0 0 0
0 0 0 0 0 0 0 0 0 0 0 0 0 0 0 1 1 1 2 2 1 1 1 2 3 3 4 5 5 5 4 2 1 0 0 0 0 0 0 0 0 0 0 0
0 0 0 0 0 0 0 0 0 0 0 0 0 0 1 1 1 1 1 2 1 1 1 2 3 4 4 5 4 4 3 1 0 0 0 0 0 0 0 0 0 0 0 0
0 0 0 0 0 0 0 0 0 0 0 0 0 0 0 0 0 1 1 1 1 1 2 3 3 3 4 3 3 2 1 0 0 0 0 0 0 0 0 0 0 0 0 0
0 0 0 0 0 0 0 0 0 0 0 0 0 0 0 0 0 0 1 1 1 2 3 3 2 2 2 2 1 1 0 0 0 0 0 0 0 0 0 0 0 0 0 0
0 0 0 0 0 0 0 0 0 0 0 0 0 0 0 0 0 0 1 1 2 2 2 2 1 1 1 1 1 0 0 0 0 0 0 0 0 0 0 0 0 0 0 0
0 0 0 0 0 0 0 0 0 0 0 0 0 0 0 0 0 0 1 1 1 1 1 1 0 0 0 0 0 0 0 0 0 0 0 0 0 0 0 0 0 0 0 0
0 0 0 0 0 0 0 0 0 0 0 0 0 0 0 0 0 0 0 0 0 0 0 0 0 0 0 0 0 0 0 0 0 0 0 0 0 0 0 0 0 0 0 0
0 0 0 0 0 0 0 0 0 0 0 0 0 0 0 0 0 0 0 0 0 0 0 0 0 0 0 0 0 0 0 0 0 0 0 0 0 0 0 0 0 0 0 0
0 0 0 0 0 0 0 0 0 0 0 0 0 0 0 0 0 0 0 0 0 0 0 0 0 0 0 0 0 0 0 0 0 0 0 0 0 0 0 0 0 0 0 0
0 0 0 0 0 0 0 1 1 0 0 0 0 0 0 0 0 0 0 0 0 0 0 0 0 0 0 0 0 0 0 0 0 0 0 0 0 0 0 0 0 0 0 0
0 0 0 0 0 0 1 1 1 1 0 0 0 0 0 0 0 0 0 0 0 0 0 0 0 0 0 0 0 0 0 0 0 0 0 0 0 0 0 0 0 0 0 0
0 0 0 0 0 0 0 1 1 1 0 0 0 0 0 0 0 0 0 0 0 0 0 0 0 0 0 0 0 0 0 0 0 0 0 0 0 0 0 0 0 0 0 0
0 0 0 0 0 0 0 1 1 0 0 0 0 1 0 0 0 0 0 0 0 0 0 0 0 0 0 0 0 0 0 0 0 0 0 0 0 0 0 0 0 0 0 0
0 0 0 0 0 0 0 1 0 0 0 0 0 0 0 0 0 0 0 0 0 0 0 0 0 0 0 0 0 0 0 0 0 0 0 0 0 0 0 0 0 0 0 0
0 0 0 0 0 0 0 0 0 0 0 0 0 0 0 0 0 0 0 0 0 0 0 0 0 0 0 0 0 0 0 0 0 0 0 0 0 0 0 0 0 0 0 0
Wind_Speed
1 2 3 6 6 6 4 3 5 7 5 5 7 9 10 9 9 10 10 9 8 7 6 6 7 6 6 5 5 4 4 3 2 2 2 2 2 1 1 2 2 3 2 2
4 5 10 7 5 4 5 5 5 4 3 5 6 6 7 9 11 12 12 11 10 8 7 7 6 5 5 4 4 4 3 3 2 2 1 2 2 1 1 2 3 3 3 3
6 9 6 5 6 5 6 6 5 3 3 5 6 2 3 4 5 7 8 9 9 10 10 9 7 5 5 4 4 3 3 3 3 3 3 3 3 2 3 3 2 2 3 3
7 9 6 6 6 6 5 6 4 4 5 1 4 3 3 4 4 6 8 8 9 9 9 8 8 6 6 4 4 3 3 3 3 3 4 4 3 2 1 1 1 2 3 3
5 4 3 5 6 4 5 3 4 4 5 4 3 3 3 3 5 8 8 9 9 10 11 10 8 7 6 5 4 3 3 4 4 3 4 4 3 2 1 2 3 3 3 3
6 5 3 3 1 3 3 6 6 6 6 3 2 2 3 3 6 7 9 10 10 10 10 9 8 8 6 4 4 4 4 4 3 4 4 4 4 3 3 3 2 2 2 3
6 5 3 1 3 5 7 7 5 5 4 3 2 2 3 3 3 6 9 10 10 11 10 9 9 8 6 6 5 4 4 3 3 4 3 4 4 3 3 2 2 1 2 2
2 5 3 2 2 2 2 8 7 4 3 3 2 0 2 3 2 4 7 9 9 9 8 8 8 6 6 6 5 5 4 3 2 3 3 3 3 2 2 2 1 1 0 1
2 4 4 2 1 5 3 2 6 7 2 1 2 1 2 3 5 6 8 9 9 8 7 7 6 5 6 5 5 5 5 3 3 3 3 3 3 3 2 2 2 1 1 1
5 2 4 3 5 5 4 5 6 5 4 1 3 3 4 3 3 4 6 7 7 7 6 5 6 6 5 5 4 4 4 4 3 3 2 3 2 2 2 2 2 2 2 2
3 3 4 4 2 0 3 3 4 4 5 5 3 5 4 6 7 7 7 8 8 8 7 6 5 5 5 5 4 4 4 4 3 3 3 3 2 3 3 2 2 2 2 2
2 5 1 3 3 1 3 3 5 5 3 4 4 4 2 5 6 7 7 8 8 7 6 6 6 5 5 5 4 4 3 4 3 3 3 3 3 3 3 2 2 2 2 2
4 6 3 6 7 6 3 1 3 5 4 3 4 3 1 5 5 5 7 8 8 7 6 6 6 5 5 5 4 3 3 3 3 4 4 3 3 3 2 2 2 2 2 3
7 5 6 5 5 3 3 3 1 4 3 3 4 5 4 5 6 5 6 7 7 7 7 6 5 4 4 4 3 3 3 3 4 4 4 3 2 2 1 2 2 3 3 3
6 4 2 2 2 1 1 2 1 1 4 6 6 7 9 9 8 8 8 8 8 8 7 6 6 4 4 3 2 2 3 4 4 4 3 2 1 1 2 2 2 3 3 4
5 4 2 2 2 1 3 3 1 2 3 5 6 3 4 6 6 7 8 8 8 8 7 7 6 6 5 4 3 3 3 3 4 3 2 2 2 2 2 2 2 3 3 3
3 4 3 1 3 2 2 3 0 2 2 6 5 5 8 7 8 9 8 8 8 8 7 7 7 6 5 4 4 4 4 4 4 3 2 2 2 2 1 2 2 2 2 2
6 4 3 1 3 0 5 2 3 5 2 3 5 8 10 9 7 5 6 8 7 7 7 6 6 5 4 3 3 4 4 4 4 3 2 2 2 2 1 2 1 1 1 1
6 6 4 3 1 2 3 1 2 4 1 3 8 9 7 8 6 2 3 6 7 7 7 6 6 5 5 4 4 4 4 3 3 3 3 2 2 2 1 1 0 1 0 1
4 5 5 3 3 3 5 3 3 7 1 2 7 10 9 8 4 4 6 6 6 7 6 6 5 5 5 4 5 5 4 3 3 3 3 2 2 2 2 1 1 1 0 1
2 2 3 3 2 4 5 2 3 3 6 4 7 9 8 6 6 6 8 7 7 7 7 7 7 5 5 4 5 5 4 3 3 3 3 2 2 2 2 1 1 1 1 1
5 4 3 3 2 6 4 2 4 6 4 6 6 7 7 6 7 8 9 9 9 8 7 7 6 5 4 5 6 5 3 3 3 3 2 2 1 1 1 1 1 0 0 1
4 7 6 6 6 6 1 4 4 6 7 5 6 7 9 9 8 9 8 9 8 8 7 6 7 6 4 4 5 5 3 3 3 3 2 1 1 0 0 1 0 0 0 0
1 3 5 3 2 3 4 5 5 6 7 7 8 9 9 9 9 9 8 7 7 7 7 6 7 6 5 4 4 4 4 4 4 3 2 1 1 1 1 0 1 1 1 1
3 3 4 3 3 4 2 5 7 7 9 9 8 8 10 11 9 8 8 8 7 6 5 6 6 7 6 5 4 4 4 4 3 2 2 2 1 1 1 1 1 2 3 4
2 6 7 7 8 7 6 5 8 10 9 10 9 8 8 10 10 8 8 7 7 6 6 6 6 6 6 5 4 4 4 5 4 2 2 2 1 1 1 1 2 4 4 6
Wind_Direction
295 59 264 243 204 192 198 224 244 247 219 141 150 162 176 170 158 154 153 152 155 150 141 124 114 114 105 90 84 83 80 70 77 91 98 99 89 65 52 59 52 45 41 44
11 271 242 237 249 234 224 230 254 277 194 139 145 159 173 174 178 168 161 162 159 148 139 131 121 115 104 99 90 78 76 76 70 85 111 119 116 94 72 44 41 39 39 32
215 247 244 229 241 244 252 214 221 212 57 81 110 100 158 176 147 154 158 161 158 160 153 144 137 127 115 107 102 95 82 77 68 67 79 77 64 47 31 28 28 23 35 37
243 252 250 233 233 208 240 224 179 146 110 143 132 170 216 179 162 167 168 165 166 157 148 147 145 138 136 129 114 100 88 74 67 76 90 95 97 85 40 18 32 21 28 29
264 259 242 232 235 193 215 187 129 116 108 72 34 128 253 162 187 197 186 176 169 160 155 154 152 144 138 135 124 108 94 77 69 77 97 100 87 77 50 47 48 30 15 16
256 261 236 229 230 132 117 67 55 56 70 67 262 148 254 212 212 192 182 172 164 158 154 150 145 135 132 135 120 104 98 83 78 79 85 97 97 87 72 58 48 23 6 2
325 315 301 71 44 22 73 79 42 15 23 256 248 130 252 273 225 178 173 163 156 153 151 150 147 144 142 136 127 122 110 93 82 83 81 91 100 100 99 98 81 49 15 354
343 311 318 8 133 146 120 126 146 184 209 271 348 152 275 314 67 116 138 144 144 146 148 148 146 143 143 141 136 126 119 109 89 86 78 74 82 89 91 91 92 77 35 325
191 276 309 350 60 125 113 120 153 129 120 76 295 266 315 31 70 95 117 135 142 145 142 140 139 140 142 141 142 137 133 118 100 94 88 75 73 80 77 63 52 42 21 353
165 253 317 337 37 33 126 139 90 105 140 217 272 252 232 204 150 128 128 131 131 130 130 132 136 144 149 149 142 132 130 126 116 103 93 87 80 84 78 64 45 34 22 13
124 133 332 17 49 134 48 66 101 117 150 155 217 260 229 191 174 163 156 147 143 142 141 139 137 141 140 134 130 131 129 121 115 109 93 82 70 67 60 48 36 36 23 18
115 114 353 296 292 181 137 168 145 145 203 165 169 255 312 162 158 151 146 144 141 139 135 133 134 133 130 134 136 139 136 129 127 118 102 89 75 68 58 38 19 30 23 15
115 102 63 349 343 357 13 352 131 128 119 146 162 234 50 119 123 133 140 141 140 136 134 131 132 138 142 145 144 146 143 136 129 119 109 93 79 75 61 31 18 24 27 22
108 102 144 185 227 261 310 323 351 116 137 174 192 180 164 152 148 144 140 138 139 141 145 145 142 144 146 145 145 145 145 140 136 126 116 108 99 91 65 41 39 35 44 42
96 107 143 204 233 190 295 292 337 129 168 168 188 178 187 180 170 158 148 143 143 148 153 155 152 151 148 146 147 143 139 135 132 126 119 123 112 89 63 52 46 41 40 40
85 115 79 359 344 28 345 331 33 87 107 128 131 170 172 151 139 143 149 153 156 160 163 160 157 155 157 157 152 140 133 130 123 124 127 132 105 81 73 66 55 43 33 27
105 119 105 278 304 32 337 291 141 99 113 146 172 184 145 141 157 165 163 161 163 164 159 159 159 160 162 163 153 148 147 135 124 125 128 128 113 91 92 90 64 46 26 30
134 119 125 145 31 257 250 260 127 111 92 127 130 145 155 157 158 158 160 161 161 159 156 154 152 153 157 154 146 145 142 138 139 139 141 143 131 121 105 90 65 13 357 16
140 135 122 115 124 270 288 291 155 123 76 127 133 141 136 123 98 99 170 159 162 159 154 153 153 150 146 148 147 134 133 130 131 144 153 159 152 138 123 117 312 320 359 349
82 103 118 127 143 224 252 279 129 101 110 193 142 146 146 135 150 206 177 153 148 144 144 146 143 135 141 152 142 131 133 133 153 164 163 162 152 149 170 202 242 301 331 276
76 67 114 148 176 253 261 275 93 130 215 182 154 155 157 169 184 167 151 146 147 145 147 146 144 145 156 151 136 136 143 168 185 162 147 144 152 174 198 209 227 250 296 326
162 152 167 144 164 247 268 117 158 195 164 140 144 154 148 138 130 135 143 144 143 143 145 146 144 147 149 140 135 140 166 186 161 143 139 150 177 201 176 178 254 308 349 349
168 176 169 172 201 225 194 155 160 141 131 136 142 144 136 132 136 137 140 142 144 145 146 146 145 143 144 146 145 155 182 164 145 138 147 177 203 247 154 167 211 329 336 334
205 130 113 114 181 152 127 118 118 126 130 135 135 134 134 135 138 135 138 140 141 143 147 147 144 146 158 166 163 171 172 158 147 153 175 190 193 276 314 289 206 193 222 239
197 129 110 122 151 106 105 132 129 115 116 122 128 135 141 136 137 139 142 146 149 148 148 148 150 158 171 174 174 181 172 155 154 169 186 193 203 225 271 290 258 231 235 214
208 159 155 189 191 161 179 164 135 128 136 140 135 131 138 141 144 141 146 150 150 150 148 148 155 163 172 174 180 189 178 164 161 176 198 205 212 229 233 264 307 291 258 257